Wind_Speed
14 14 14 15 16 15 11 10 9 7 6 6 6 6 6 6 6 6 6 6 5 4 3 1 1 1 1 1 1 2 3 5 5 5 6 6 6 5 6 6 5 5 6 5 4 4 3 3 2
15 13 14 16 15 13 11 10 9 8 7 7 7 7 7 7 7 6 6 5 5 4 3 2 2 2 2 2 2 2 3 4 5 5 5 4 5 5 5 5 5 5 6 5 4 4 3 3 3
14 13 15 15 14 11 11 10 10 9 8 8 8 7 7 8 8 7 6 5 4 4 3 3 3 3 3 3 2 2 2 3 4 5 5 5 5 5 5 6 6 5 6 5 4 3 3 3 3
12 14 15 14 12 11 11 10 9 9 8 9 8 8 8 8 8 8 7 6 5 5 4 4 4 4 3 3 3 2 3 3 4 5 5 6 6 6 6 6 6 5 5 5 4 3 3 3 3
14 14 15 13 12 10 10 10 9 9 9 9 9 9 9 9 9 8 7 7 6 6 6 6 5 5 4 3 2 2 2 2 3 5 6 5 6 6 6 6 7 6 5 5 4 3 3 3 4
14 13 14 11 9 9 9 10 10 9 9 9 9 9 9 9 9 8 8 7 6 6 7 7 6 5 5 4 2 1 1 2 3 3 5 5 6 7 6 6 7 7 6 5 5 5 4 4 4
12 12 11 9 9 9 9 9 9 9 9 10 9 9 9 9 10 9 8 8 7 7 8 8 7 6 5 4 3 2 1 1 2 3 3 3 4 6 6 6 6 7 7 6 6 6 5 4 4
10 9 9 9 8 8 9 9 8 8 9 10 10 10 10 10 10 10 9 8 8 8 8 9 8 7 5 4 4 3 2 2 2 3 3 4 4 5 6 7 7 7 7 7 7 7 6 5 5
8 8 7 7 7 8 8 9 10 10 10 10 11 10 10 10 10 10 10 9 9 9 9 8 8 8 7 5 5 4 3 3 3 3 3 3 3 4 6 7 7 7 7 7 7 7 6 6 5
7 4 5 5 6 7 9 10 10 10 11 11 11 11 11 10 10 10 10 10 10 9 9 9 8 9 8 7 6 5 4 4 4 4 3 3 3 3 4 5 6 6 6 6 8 7 7 6 6
5 4 5 5 6 7 8 9 9 10 11 11 11 11 11 11 11 11 11 11 11 11 10 9 9 8 8 7 7 6 5 4 4 4 3 4 3 3 3 4 5 6 6 7 7 8 7 7 7
5 5 5 5 6 7 8 9 9 11 11 11 11 11 12 12 12 12 12 12 12 12 10 9 9 8 7 7 6 6 5 4 4 4 3 3 3 3 3 4 4 5 6 7 8 8 8 7 7
3 4 5 5 7 7 8 9 10 10 11 11 11 11 12 12 12 12 12 12 12 11 10 10 9 8 8 6 6 5 5 4 4 4 3 3 4 4 4 4 4 4 4 6 7 8 8 8 7
2 2 4 6 6 7 8 9 9 11 12 12 12 12 12 13 13 12 12 12 12 11 10 10 9 9 8 7 6 6 5 5 4 4 3 3 4 4 4 5 4 4 4 5 6 6 6 7 6
2 3 5 7 6 7 9 10 10 11 12 12 13 13 13 12 13 13 12 11 11 11 10 11 10 9 8 8 7 6 6 5 4 4 4 4 4 4 4 5 5 4 5 5 5 5 6 7 7
3 4 5 7 7 8 9 10 11 11 11 12 13 13 13 12 13 13 11 11 10 10 10 10 11 9 8 7 7 7 6 6 5 5 5 5 5 5 4 4 4 3 4 5 5 6 7 7 7
2 3 5 6 7 8 8 10 12 13 12 12 13 12 12 12 13 12 11 11 10 10 10 11 11 10 9 8 7 7 7 7 6 6 5 5 5 5 5 5 5 4 4 5 5 6 7 8 8
1 1 5 6 7 8 8 9 12 13 13 13 13 13 12 12 12 12 12 11 10 10 10 11 11 10 9 9 8 8 8 8 7 6 6 6 6 6 5 5 4 5 5 5 6 6 7 7 8
3 2 4 6 6 7 9 10 11 13 13 13 14 13 13 12 11 12 12 11 11 10 11 11 11 10 10 9 9 9 9 9 8 7 6 6 6 6 6 6 6 5 5 6 6 7 7 7 8
5 4 4 7 8 7 9 11 11 13 13 13 13 13 12 12 11 11 12 12 12 11 12 11 11 11 10 10 10 9 9 9 8 8 7 7 7 7 7 6 7 6 6 7 7 7 7 8 8
5 5 7 8 7 7 8 9 12 14 14 12 12 12 12 11 11 11 11 12 12 12 12 12 12 12 12 11 11 10 9 9 9 9 9 8 8 8 8 7 7 7 7 7 8 7 8 8 9
6 8 9 8 7 7 7 10 13 13 13 13 13 12 12 12 12 12 12 12 12 13 13 13 13 13 13 12 10 10 10 10 9 9 10 9 9 9 9 9 9 8 8 8 8 8 8 9 9
9 9 8 8 7 7 8 10 13 13 12 12 13 12 13 13 14 14 13 13 13 13 13 13 13 14 13 12 11 11 11 11 11 10 10 10 10 10 10 10 10 10 10 10 9 9 9 9 10
9 8 7 7 8 9 9 10 12 12 12 12 13 13 14 14 14 14 14 14 13 13 13 13 13 13 13 12 11 11 12 12 12 12 12 12 12 11 11 11 11 11 11 11 10 10 10 11 11
9 8 8 9 10 10 9 11 11 12 13 13 14 14 14 15 15 15 15 14 13 13 13 13 13 13 13 13 12 12 13 13 13 13 14 14 13 12 13 13 13 12 12 12 11 11 12 12 12
10 9 9 10 9 9 9 10 13 14 15 14 14 14 15 15 15 15 15 14 14 14 14 14 13 13 13 13 13 13 14 14 15 15 15 15 13 13 14 14 14 13 13 13 13 13 13 13 13
11 10 9 10 9 10 11 10 14 15 15 16 15 14 15 15 15 16 16 16 15 14 14 14 13 14 14 14 15 15 16 16 16 17 16 15 15 15 15 15 14 14 14 14 14 14 14 14 14
12 11 10 10 12 11 10 13 15 16 17 17 16 16 16 15 15 16 16 16 16 15 15 14 14 14 15 16 16 16 17 17 17 17 17 17 17 16 16 15 16 15 15 15 16 16 16 15 15
13 11 11 12 12 12 13 15 16 17 16 17 18 17 17 17 16 16 16 16 16 16 15 15 15 15 15 16 16 17 17 18 17 17 17 17 18 18 17 17 17 16 16 16 16 17 17 17 17
13 12 12 14 14 13 13 14 16 15 16 17 17 17 18 18 16 16 17 17 17 17 17 16 16 16 16 16 17 18 18 18 18 18 18 18 18 18 18 18 17 17 17 18 18 18 19 19 19
Wind_Direction
81 80 75 70 60 59 53 41 31 32 38 33 28 27 18 14 18 13 9 14 29 32 35 21 2 317 286 268 227 221 202 196 192 183 182 186 189 193 191 198 200 197 197 200 197 199 193 187 164
83 80 74 64 57 49 43 39 29 26 25 25 24 25 18 16 15 11 10 12 26 35 32 8 351 316 306 300 269 241 222 202 194 192 194 193 197 197 197 206 205 201 205 208 211 209 202 205 197
84 78 72 63 56 46 39 33 30 28 23 24 23 22 17 20 17 13 9 10 17 27 34 7 356 339 316 306 297 277 250 214 203 205 205 207 207 214 214 215 208 206 207 211 214 216 213 209 211
81 72 67 63 55 43 36 29 28 26 19 17 19 19 16 20 18 16 11 6 15 22 31 21 13 4 343 326 309 279 255 246 227 212 213 212 212 213 217 216 215 216 216 213 213 214 211 209 208
74 67 64 56 48 39 29 24 24 25 17 17 13 13 16 19 19 17 13 8 21 25 26 24 17 16 14 4 341 286 261 255 242 228 224 220 219 218 226 225 224 224 216 214 211 210 208 214 217
72 59 60 48 43 36 30 23 19 20 15 15 11 13 21 22 20 18 15 13 20 22 19 22 17 10 5 3 6 360 305 251 251 251 236 228 227 231 240 240 233 224 216 216 222 219 219 213 213
72 72 65 54 41 33 28 20 22 15 13 14 13 14 22 21 20 17 16 17 18 20 17 13 12 7 4 10 8 356 340 276 260 261 263 251 233 230 233 235 238 228 225 226 221 216 217 219 225
71 63 53 45 40 32 27 19 20 19 21 16 15 14 17 15 12 14 17 16 13 13 11 8 4 8 11 7 1 348 335 316 295 273 274 275 265 235 226 234 241 238 231 230 218 218 224 230 239
59 53 43 39 35 33 30 19 14 15 15 20 16 15 14 10 9 11 12 12 10 8 6 4 6 6 6 2 355 341 326 316 306 300 292 285 271 261 247 243 241 238 235 230 220 220 227 234 245
57 42 48 45 32 26 23 21 12 4 9 12 11 10 11 8 6 5 5 6 7 3 4 5 5 5 2 357 351 343 330 326 318 312 300 288 284 274 268 259 249 244 233 230 223 223 225 229 240
63 62 41 40 34 28 18 16 11 2 4 6 8 9 8 7 6 3 3 5 3 1 1 3 1 360 359 356 352 345 337 338 332 322 320 307 297 281 270 262 252 244 239 236 227 222 228 231 236
59 51 42 45 40 24 16 15 12 5 5 4 5 5 5 3 3 2 4 2 359 359 1 2 4 2 358 358 356 355 355 354 345 330 325 318 306 288 275 270 268 256 246 237 230 223 231 235 238
46 31 18 17 25 20 13 13 10 10 6 6 7 5 4 3 4 4 2 2 1 4 7 5 6 7 6 5 6 6 3 357 342 327 314 312 318 302 295 278 275 263 251 241 240 231 232 236 239
48 15 25 16 14 14 4 11 8 10 9 7 6 5 6 5 5 4 2 2 3 7 9 8 7 9 11 12 14 13 10 359 351 349 327 312 315 307 298 299 292 272 261 246 238 232 239 239 245
62 20 16 3 359 358 355 355 358 4 6 3 4 4 5 4 4 4 0 4 8 10 8 7 6 9 10 13 16 16 15 14 4 356 347 325 316 317 311 296 299 274 258 246 240 237 250 251 250
38 14 5 355 356 350 349 346 346 352 358 356 359 2 3 3 2 4 6 11 13 12 11 10 8 9 12 15 15 13 16 14 1 350 342 332 320 316 316 302 300 281 262 253 247 248 256 258 256
39 354 340 332 342 335 333 337 338 343 348 349 353 0 2 2 2 6 10 13 14 11 8 6 5 7 9 10 9 7 5 358 352 346 341 335 327 319 317 311 306 294 276 267 266 260 260 261 258
318 286 313 319 321 324 323 329 329 337 341 343 348 353 356 359 1 3 5 7 8 7 4 1 2 5 5 5 2 360 359 352 346 345 343 339 331 324 323 319 311 298 285 279 276 275 269 267 264
294 279 288 293 305 313 322 330 327 335 338 341 345 347 350 356 359 359 358 359 359 358 357 356 356 358 357 355 355 357 357 354 349 343 341 333 327 323 326 325 317 304 293 287 282 277 277 273 269
268 266 284 298 304 310 317 321 320 329 334 337 340 342 345 349 353 354 354 350 352 352 349 349 350 349 348 345 343 349 349 346 346 341 332 325 320 321 321 320 314 307 298 287 282 278 273 275 274
254 269 276 287 290 309 313 312 313 320 327 332 336 338 341 344 347 348 346 347 345 346 345 345 345 345 343 340 339 341 343 342 340 337 334 324 319 319 319 314 304 300 301 295 287 282 277 275 276
257 265 269 280 291 296 301 297 297 307 318 329 333 333 334 336 338 339 336 339 342 343 343 341 342 342 339 338 337 336 338 338 335 332 332 326 318 318 316 314 309 309 306 302 296 289 285 283 280
246 255 272 281 280 269 278 280 296 295 308 322 329 328 327 330 330 331 335 334 334 336 339 339 338 338 337 336 333 330 332 332 333 328 325 320 313 313 311 312 311 309 308 304 299 295 291 287 283
246 262 280 287 284 272 285 283 287 296 309 313 319 321 324 322 323 321 325 327 330 331 332 334 335 335 334 332 331 330 327 326 329 328 324 322 314 309 308 307 306 303 302 300 298 295 294 287 286
250 264 274 282 287 292 294 285 287 294 305 309 311 315 318 318 319 318 321 324 325 324 326 329 330 331 330 329 327 325 323 321 320 321 320 320 314 309 309 308 306 302 299 297 295 291 289 288 287
248 254 269 276 283 297 290 285 291 296 301 306 307 311 315 317 316 317 320 322 321 318 320 322 324 325 324 324 323 320 319 318 316 316 315 314 313 310 309 309 306 302 298 295 293 290 290 289 286
247 246 262 275 274 279 286 284 292 297 302 303 303 307 311 311 310 313 315 316 316 315 315 317 317 318 318 316 316 314 312 312 313 313 312 311 311 309 307 306 304 301 297 293 290 290 291 291 290
255 253 258 267 278 278 278 284 288 293 298 303 304 308 308 307 306 311 313 312 313 313 312 312 312 311 312 312 311 310 311 310 310 310 309 309 308 307 307 303 302 298 296 294 290 287 287 287 287
257 259 254 257 260 274 277 281 289 295 301 304 305 306 307 308 305 307 310 311 311 311 310 308 308 308 308 309 309 309 309 311 310 308 308 309 307 304 302 303 300 295 293 294 293 289 288 286 286
254 255 258 268 270 269 273 280 284 291 293 297 300 304 306 309 305 307 309 312 312 312 310 308 306 305 304 306 308 307 306 305 306 306 305 306 308 306 300 298 297 294 292 292 291 290 289 288 289
Height
5901 5901 5900 5900 5899 5899 5899 5899 5898 5896 5895 5894 5893 5892 5891 5891 5890 5891 5887 5884 5884 5883 5883 5883 5883 5884 5884 5884 5884 5883 5883 5884 5884 5885 5885 5886 5886 5887 5888 5889 5889 5890 5891 5891 5891 5892 5893 5893 5894
5903 5903 5902 5901 5902 5902 5902 5901 5900 5898 5897 5895 5894 5893 5892 5891 5891 5889 5887 5886 5885 5884 5884 5884 5884 5884 5884 5884 5884 5883 5883 5884 5884 5885 5885 5886 5887 5887 5888 5889 5889 5890 5891 5891 5891 5892 5893 5893 5894
5906 5905 5903 5903 5904 5905 5904 5903 5901 5900 5898 5897 5896 5895 5894 5893 5891 5890 5889 5888 5887 5885 5885 5885 5885 5884 5884 5884 5883 5883 5883 5884 5884 5885 5885 5886 5886 5887 5888 5888 5889 5890 5890 5891 5891 5892 5892 5893 5894
5906 5905 5906 5907 5906 5907 5906 5904 5903 5902 5900 5899 5898 5896 5894 5893 5892 5891 5890 5889 5888 5887 5886 5885 5885 5884 5884 5884 5883 5883 5883 5883 5884 5884 5885 5885 5886 5886 5887 5888 5888 5889 5889 5890 5891 5892 5892 5893 5894
5907 5907 5907 5909 5909 5909 5908 5906 5904 5903 5901 5900 5899 5897 5895 5895 5893 5892 5891 5890 5889 5887 5886 5886 5885 5885 5884 5884 5883 5883 5883 5883 5884 5884 5885 5885 5886 5886 5886 5887 5887 5888 5889 5889 5890 5891 5892 5893 5894
5909 5909 5909 5912 5911 5911 5910 5908 5907 5905 5903 5901 5900 5898 5896 5896 5894 5893 5892 5891 5889 5889 5888 5887 5886 5885 5884 5884 5883 5883 5883 5883 5883 5884 5884 5885 5885 5885 5886 5886 5886 5887 5888 5889 5890 5891 5892 5893 5894
5913 5913 5913 5914 5913 5913 5912 5910 5908 5906 5904 5902 5901 5899 5898 5896 5895 5894 5893 5891 5890 5890 5889 5887 5886 5885 5884 5884 5883 5883 5883 5883 5883 5883 5884 5884 5883 5884 5885 5885 5886 5886 5887 5888 5889 5890 5891 5892 5893
5916 5916 5915 5915 5915 5914 5913 5911 5909 5906 5904 5904 5902 5900 5899 5898 5896 5895 5893 5892 5891 5891 5890 5888 5887 5885 5885 5884 5883 5883 5883 5883 5883 5883 5883 5883 5883 5883 5883 5884 5884 5885 5886 5887 5888 5889 5891 5892 5893
5918 5918 5918 5917 5917 5916 5915 5912 5910 5908 5906 5904 5903 5902 5901 5899 5897 5896 5894 5893 5892 5891 5890 5889 5888 5886 5885 5884 5883 5883 5883 5882 5882 5882 5882 5882 5882 5882 5882 5882 5883 5883 5884 5886 5887 5888 5890 5891 5892
5921 5920 5919 5919 5919 5917 5916 5914 5912 5910 5907 5906 5904 5903 5901 5900 5898 5897 5895 5894 5892 5891 5890 5889 5888 5887 5886 5885 5884 5883 5882 5882 5882 5882 5881 5881 5881 5882 5882 5882 5881 5882 5883 5884 5885 5887 5888 5890 5891
5922 5922 5920 5919 5919 5918 5917 5915 5913 5911 5909 5907 5905 5904 5902 5901 5899 5897 5896 5894 5893 5891 5890 5889 5888 5887 5885 5884 5883 5883 5882 5882 5882 5881 5881 5881 5881 5881 5881 5880 5880 5881 5881 5882 5884 5885 5887 5888 5890
5923 5922 5921 5921 5920 5919 5918 5916 5914 5912 5911 5908 5906 5905 5903 5901 5899 5898 5896 5894 5893 5891 5890 5889 5887 5886 5885 5884 5883 5882 5882 5882 5882 5881 5881 5881 5880 5880 5880 5880 5880 5880 5881 5882 5883 5884 5886 5887 5889
5923 5923 5922 5921 5920 5919 5919 5917 5915 5913 5911 5910 5908 5906 5904 5902 5900 5898 5896 5895 5893 5892 5890 5889 5887 5886 5885 5884 5883 5882 5882 5882 5882 5881 5881 5881 5881 5880 5879 5879 5880 5880 5880 5881 5882 5884 5885 5886 5887
5923 5923 5923 5922 5922 5920 5919 5917 5916 5914 5912 5911 5909 5907 5905 5903 5901 5899 5897 5895 5893 5892 5891 5889 5888 5886 5885 5884 5883 5883 5882 5882 5882 5882 5881 5881 5881 5880 5879 5879 5879 5879 5880 5880 5881 5883 5884 5885 5886
5923 5924 5924 5923 5922 5921 5920 5918 5916 5915 5913 5911 5909 5907 5905 5903 5901 5899 5897 5895 5893 5892 5891 5890 5888 5887 5886 5885 5884 5884 5883 5883 5882 5882 5881 5881 5881 5880 5879 5879 5878 5878 5879 5880 5880 5882 5883 5884 5885
5923 5924 5925 5925 5924 5922 5922 5919 5917 5915 5914 5912 5910 5908 5906 5904 5902 5900 5898 5896 5894 5893 5892 5891 5889 5887 5886 5885 5885 5884 5883 5883 5882 5882 5881 5881 5881 5880 5879 5879 5879 5879 5879 5879 5880 5881 5882 5883 5884
5924 5925 5926 5926 5925 5924 5922 5920 5918 5916 5914 5913 5911 5909 5907 5905 5903 5901 5899 5897 5896 5894 5893 5892 5890 5888 5887 5886 5885 5885 5884 5883 5882 5882 5881 5880 5880 5880 5879 5879 5879 5879 5879 5879 5879 5880 5881 5881 5882
5924 5926 5927 5927 5926 5925 5923 5921 5918 5917 5915 5913 5911 5909 5907 5905 5904 5902 5900 5898 5897 5896 5894 5893 5891 5889 5888 5887 5886 5885 5884 5883 5882 5881 5881 5880 5879 5879 5879 5879 5879 5878 5878 5878 5878 5879 5879 5879 5880
5924 5925 5926 5926 5925 5924 5922 5921 5919 5917 5915 5913 5911 5909 5907 5906 5904 5903 5901 5899 5898 5897 5895 5893 5892 5890 5889 5887 5886 5885 5884 5883 5882 5881 5880 5880 5879 5879 5878 5878 5878 5878 5877 5877 5877 5877 5878 5878 5878
5924 5925 5926 5925 5924 5924 5922 5920 5918 5917 5915 5913 5911 5909 5907 5906 5904 5903 5901 5900 5898 5897 5895 5894 5892 5890 5888 5887 5886 5884 5883 5882 5882 5881 5880 5879 5879 5878 5878 5877 5877 5876 5876 5876 5876 5876 5876 5876 5876
5923 5924 5925 5924 5923 5923 5923 5920 5917 5916 5915 5913 5911 5909 5907 5906 5904 5903 5901 5900 5898 5897 5895 5894 5892 5890 5888 5886 5885 5884 5883 5882 5882 5881 5880 5879 5878 5878 5877 5877 5876 5875 5875 5874 5874 5874 5875 5874 5874
5923 5923 5923 5923 5922 5922 5922 5921 5916 5914 5913 5912 5910 5908 5907 5905 5904 5902 5901 5899 5898 5896 5895 5893 5891 5889 5888 5886 5885 5884 5883 5882 5881 5880 5879 5878 5877 5877 5876 5875 5875 5874 5874 5873 5873 5872 5872 5872 5872
5921 5921 5921 5921 5920 5920 5920 5920 5917 5914 5912 5911 5910 5907 5905 5904 5903 5901 5899 5898 5897 5896 5894 5892 5891 5889 5887 5885 5884 5883 5882 5881 5880 5879 5878 5877 5876 5876 5875 5874 5873 5873 5872 5871 5871 5870 5870 5870 5870
5919 5919 5919 5919 5919 5918 5919 5917 5915 5912 5912 5910 5909 5907 5905 5903 5902 5900 5898 5897 5896 5894 5893 5891 5890 5888 5886 5885 5883 5882 5881 5880 5879 5878 5877 5876 5875 5874 5874 5873 5872 5871 5870 5870 5869 5868 5868 5868 5867
5917 5919 5919 5919 5917 5917 5917 5914 5912 5911 5910 5910 5908 5907 5904 5902 5900 5899 5897 5896 5894 5893 5891 5890 5888 5887 5885 5884 5882 5881 5880 5879 5878 5877 5875 5875 5873 5872 5872 5871 5870 5869 5868 5867 5867 5866 5866 5865 5865
5915 5917 5918 5918 5917 5916 5915 5912 5911 5910 5909 5908 5907 5905 5903 5901 5899 5897 5895 5894 5892 5891 5889 5888 5887 5885 5884 5883 5881 5880 5879 5877 5876 5875 5874 5872 5871 5870 5869 5868 5867 5866 5866 5865 5864 5864 5863 5863 5862
5913 5914 5915 5916 5915 5915 5913 5910 5908 5907 5906 5905 5904 5903 5901 5899 5896 5895 5894 5892 5890 5889 5887 5886 5885 5884 5882 5881 5880 5878 5877 5875 5874 5873 5871 5870 5869 5868 5867 5866 5864 5863 5863 5862 5861 5861 5860 5860 5859
5910 5912 5913 5914 5913 5912 5911 5909 5907 5905 5904 5903 5902 5900 5899 5896 5894 5893 5891 5890 5888 5886 5885 5884 5882 5881 5880 5879 5878 5876 5874 5873 5872 5870 5869 5867 5866 5864 5863 5862 5861 5860 5859 5858 5858 5857 5857 5856 5855
5909 5910 5910 5911 5911 5910 5909 5908 5904 5903 5901 5900 5898 5897 5895 5893 5891 5890 5889 5887 5886 5884 5882 5881 5880 5879 5877 5876 5875 5873 5872 5870 5869 5867 5866 5864 5862 5861 5860 5859 5857 5856 5855 5855 5854 5853 5853 5852 5851
5905 5906 5908 5908 5907 5907 5906 5907 5901 5901 5899 5897 5895 5894 5893 5891 5888 5887 5886 5884 5883 5881 5879 5878 5877 5876 5874 5873 5871 5870 5869 5867 5866 5864 5862 5861 5859 5857 5856 5855 5853 5852 5852 5851 5850 5849 5848 5847 5847